Regional Weather Roundup
Issued by NWS Wakefield, VA

Home | Current Version | Previous Version | Graphics & Text | Print | Product List | Glossary On
Versions: 1 2 3 4 5 6 7 8 9 10 11 12 13 14 15 16 17 18 19 20 21 22 23 24 25 26 27 28
000
ASUS41 KAKQ 260015
RWRAKQ

REGIONAL WEATHER ROUNDUP
NATIONAL WEATHER SERVICE WAKEFIELD VA
800 PM EDT TUE JUL 25 2017

Note: "fair" indicates few or no clouds below 12,000 feet with no
significant weather and/or obstructions to visibility. * = Denotes
station may not report precipitation (e.g., rain,snow,etc.),
thunder or fog.

VAZ042-051-052>054-056-260100-
NORTHERN VIRGINIA

CITY           SKY/WX    TMP DP  RH WIND       PRES   REMARKS
WASH NATIONAL  MOCLDY    78  61  55 N12       30.15R
DULLES         PTCLDY    75  58  55 N9        30.16R
FORT BELVOIR   CLEAR     78  60  53 NW3       30.15R
QUANTICO       CLEAR     78  63  59 N10       30.15R
FREDERICKSBRG* CLEAR     78  62  58 N6        30.13R
STAFFORD*      CLEAR     74  61  63 N5        30.19R
WARRENTON      CLEAR     75  56  51 N3        30.16R
CULPEPER*      CLEAR     75  62  63 CALM      30.17R
MANASSAS*      CLEAR     75  60  59 N9        30.16R
LEESBURG*      CLEAR     77  63  61 N9        30.18R
WINCHESTER     CLEAR     70  57  64 N5        30.18S
FRONT ROYAL*   CLEAR     73  57  56 N3        30.17R
LURAY*         CLEAR     73  59  60 NE8       30.17R
$$

VAZ048-049-060>072-079>083-260100-
CENTRAL AND SOUTH CENTRAL VIRGINIA

CITY           SKY/WX    TMP DP  RH WIND       PRES   REMARKS
RICHMOND       PTCLDY    78  62  57 NE12      30.12R
CHESTERFIELD*  NOT AVBL
PETERSBURG*    CLEAR     81  56  43 CALM      30.11R
HANOVER        CLEAR     77  60  55 N3        30.14R
TAPPAHANNOCK*  CLEAR     79  41  26 N5        30.14R
QUINTON*       FAIR      78  62  58 NE5       30.12R
CHARLOTTSVILLE CLEAR     78  61  55 NE9       30.15R
GORDONSVILLE*  CLEAR     75  61  62 NE10      30.15R
ORANGE*        CLEAR     73  59  60 N5        30.15R
LOUISA*        CLEAR     77  59  53 NE8       30.14R
BUMPASS*       FAIR      76  62  60 CALM      30.14R
FARMVILLE*     CLEAR     82  55  40 NE8       30.10R
CREWE*         FAIR      81  55  41 NE5       30.10R
FORT PICKETT*  FAIR     N/A N/A N/A NE5       30.11R
CHASE CITY*    CLOUDY    85  62  46 CALM      30.09R
CLARKSVILLE*   FAIR      81  64  57 CALM      30.08R
SOUTH HILL*    MOCLDY    82  68  61 CALM      30.15R
LAWRENCEVILLE* FAIR      81  64  56 E3        30.10R
EMPORIA*       MOCLDY    82  66  57 CALM      30.11R
$$

VAZ088>098-260100-
SOUTHEAST VIRGINIA

CITY           SKY/WX    TMP DP  RH WIND       PRES   REMARKS
NORFOLK        CLOUDY    77  65  66 NE10G21   30.11R
VIRGINIA BEACH MOCLDY    74  62  66 E6        30.10R
NORFOLK NAVAL  PTCLDY    79  63  57 NE13      30.12S
WEST POINT*    CLEAR     79  58  49 NE3       30.14R
SALUDA*        FAIR      77  65  67 N3        30.12R
NEWPORT NEWS   PTCLDY    78  63  59 NE7       30.11R
LANGLEY AFB    PTCLDY    78  63  59 NE13      30.11R
FORT EUSTIS    MOCLDY    83  64  53 E9        30.09R
WILLIAMSBURG*  CLEAR     82  64  54 CALM      30.12R
HR EXEC AP*    FAIR      77  63  61 NE9       30.09R
FRANKLIN*      PTCLDY    77  64  65 E8        30.11R
US460-WAKEFLD  NOT AVBL
$$

VAZ020-022-025-037-045-260100-
WEST CENTRAL AND SOUTHWEST VIRGINIA

CITY           SKY/WX    TMP DP  RH WIND       PRES   REMARKS
STAUNTON*      CLEAR     75  59  56 NE7       30.18R
WAYNESBORO*    CLEAR     77  62  60 NE6       30.16R
HOT SPRINGS VA CLEAR     72  45  37 CALM      30.28R
LYNCHBURG      CLEAR     82  61  48 E3        30.11R
DANVILLE       CLEAR     81  70  69 CALM      30.08R
SOUTH BOSTON*  FAIR      82  67  62 CALM      30.08R
MARTINSVILLE   CLEAR     81  67  62 CALM      30.12R
ROANOKE        CLEAR     84  56  38 NW8       30.13R
BLACKSBURG     CLEAR     81  53  38 N7        30.20S
DUBLIN*        CLEAR     81  47  30 N6        30.19R
MARION*        CLEAR     79  56  45 CALM      30.23R
HILLSVILLE*    CLEAR     80  50  34 CALM      30.19S
RICHLANDS*     FAIR      76  57  51 CALM      30.22R
WISE*          CLEAR     75  63  64 N5        30.23R
ABINGDON*      CLEAR     82  65  56 CALM      30.17S
$$

MDZ021>025-VAZ099-100-260100-
SOUTHERN MARYLAND AND THE DELMARVA PENINSULA

CITY           SKY/WX    TMP DP  RH WIND       PRES   REMARKS
PATUXENT RIVER MOCLDY    77  65  66 N9        30.13R
BAY BRIDGE APT CLOUDY    77  63  61 N7        30.13R
LEONARDTOWN    CLOUDY    75  63  64 CALM      30.15R
DOVER          MOCLDY    74  74 100 E5        30.13R
GEORGETOWN     PTCLDY    75  67  76 E5        30.14R
EASTON         MOCLDY    77  63  61 N5        30.17R
CAMBRIDGE      MOCLDY    79  63  57 N9        30.13R
SALISBURY      CLOUDY    75  68  78 NE7       30.13R
OCEAN CITY     PTCLDY    74  68  81 NE7       30.13R
WALLOPS ISLAND CLOUDY    75  69  81 NE12      30.13R
ACCOMACK*      MOCLDY    74  67  77 E6        30.12S
$$

NCZ012>017-030>032-260100-
NORTH CENTRAL AND EASTERN NORTH CAROLINA

CITY           SKY/WX    TMP DP  RH WIND       PRES   REMARKS
ROANOKE RAPIDS FAIR      82  70  65 NE5       30.08R
RALEIGH        MOCLDY    86  64  47 NE5       30.08R
ELIZABETH CITY PTCLDY    77  67  71 NE13      30.10R
AHOSKIE*         N/A     79  74  83 E3        30.09R
EDENTON*       MOCLDY    79  69  71 CALM      30.10R
CURRITUCK*     PTCLDY    77  65  67 NE7       30.11S
KILL DEVIL HLS MOCLDY    76  64  66 NE5       30.09R
MANTEO         PTCLDY    76  65  69 E10       30.10R
CAPE HATTERAS  CLOUDY    77  66  68 NE7       30.09R
TARBORO*       NOT AVBL
GOLDSBORO      MOCLDY    86  79  81 E13       30.05R HX 100
WASHINGTON     PTCLDY    81  72  72 E6        30.07R
GREENVILLE     PTCLDY    82  73  74 SE7       30.08S
NEW BERN       CLOUDY    80  74  81 E10       30.08R
WILMINGTON     CLOUDY    82  76  81 SW3       30.04R
$$

VAZ048-260100-
ELSEWHERE

CITY           SKY/WX    TMP DP  RH WIND       PRES   REMARKS
HARRISBURG PA  CLOUDY    73  60  63 N5        30.15S
BALTIMORE      MOCLDY    75  63  66 W6        30.14R
ANNAPOLIS      CLOUDY    78  66  66 NW8       30.14R
ANDREWS AFB    PTCLDY    74  61  61 N10       30.14R
PHILADELPHIA   CLOUDY    76  62  62 N7        30.15R
HENDERSON NC   PTCLDY    83  61  48 CALM      30.08R
GREENSBORO     PTCLDY    85  64  49 E8        30.09R
ROCKY MOUNT    PTCLDY    83  75  77 E3        30.07R
$$

VAZ100-260100-
MARINE

STATION/POSITION TIME  TEMP    WIND        PRES    WAVE   SWELL
                       AIR SEA DIR/SP/G            HT/PER HT/PER
                 (UTC) (F)     (DEG/KT/KT) (MB)    (FT/S) (FT/S)
BRANDYWINE LGT   2342   72      90/ 10/ 12 1021.0R
CAPE MAY NJ      2348   72 75   80/  5/  8 1020.2R
LEWES DE         2348   73 78  100/ 10/ 12 1020.4R
15NM E FENWICK I 2350   75 76   40/ 12/ 14 1020.6R   4/ 6   3/ 6
OCEAN-CITY-INLET 2348   74 74   70/  5/ 10 1020.7R
WACHAPREAGUE VA  2348   75 83   60/  6/  8 1020.0R
THOMAS POINT MD  0000   77 82  330/ 10/ 12   N/A
GOOSES REEF MD   2350   79      30/  8/ 10 1021.1R
COVE POINT MD    2348   78      20/  9/ 11 1021.0R
SOLOMONS ISLAND  2348   78 84   10/  6/  8   N/A
BISHOPS HEAD MD  2348   78 83  340/  8/ 11 1020.3R
PINEY POINT MD   2348           30/  6/  6   N/A
CAMBRIDGE MD     2348   79 86              1021.1R
LEWISETTA VA     2348   79 84   20/  7/ 11 1020.1R
RAPPAHANNOCK LGT 2348          360/ 13/ 15 1020.3R
STINGRAY PT      2350   80      40/ 14/ 16 1019.9R
YORK RVR RNG VA  2348   80      50/ 16/ 19 1020.0R
YORKTOWN VA      2348   79 83   50/ 11/ 14 1019.3R
JAMESTOWN VA     2350           60/  8/ 16   N/A
DOMINION TERM VA 2348   80      50/  4/  9 1019.6R
KIPTOPEKE VA     2348      79  110/  6/  7   N/A
CHES BAY BRIDGE  2348   75 77   80/ 14/ 15 1019.4R
CAPE HENRY VA    2348   74      70/ 12/ 13   N/A
WILLOUBY STN VA  2348   78      40/ 16/ 18 1019.6R
S CRANEY ISL VA  2348   78      50/ 18/ 20 1019.0R
CAPE HENRY BUOY  2330      73                N/A     3/11
1ST LANDING BUOY 2350   75                 1019.7R
64NM E OF VA BCH 2350   77 78   10/ 14/ 16 1019.2R   3/ 5   2/ 7
DUCK PIER NC     2348   76 76   40/ 11/ 12 1018.9R
44100 DUCK FRF   2305      78                N/A     3/ 6
44056 DUCK FRF   2330      75                N/A     3/11
OREGON INLET NC  2348           20/  9/ 11 1018.9R
HATTERAS NC      2348   78 79   50/ 10/ 16 1018.6R
DIAMOND SHLS NC  2350   80 84   40/ 14/ 17 1018.2R   4/ 4   2/10
CAPE LOOKOUT NC  0000   82      CALM  /  2 1017.8R
$$




USA.gov is the U.S. government's official web portal to all federal, state and local government web resources and services.